sat.trackr.live / text

‹ back to catalog

STARLINK-32082

NORAD 60346 · 2024-136T

PAYLOAD ACTIVE UNKNOWN

§ Identity

Operator
Country
US
Launch date
2024-08-02
Launch site
AFETR
Launch vehicle
Mass (kg)
RCS (m²)

Purposes: comms

External: N2YO · Heavens-Above · Gunter

§ Orbital elements

Epoch: 2026-09-21T22:26:41.589312Z

Period
93.85 min
Inclination
53.1608°
Eccentricity
0.0000766
Mean motion
15.34390156 rev/d
Perigee alt
462.2 km
Apogee alt
463.3 km
Semi-major
6,840.9 km
B*
2.6897e-5
RAAN
243.2024°
Arg perigee
49.7960°
Mean anomaly
310.3110°
Rev number
11,972

§ Raw data

STARLINK-320821 60346U 24136T   26264.93520358  .00000533  00000+0  26897-4 0  99962 60346  53.1608 243.2024 0000766  49.7960 310.3110 15.34390156119721

JSON: /api/v1/satellites/60346 · /tle

For live sub-satellite position, see the globe view (requires WebGL).

§ Visibility from observer

Set your observer location to see the next 7 days of passes ≥ 10°. The values pass through the URL so the page stays shareable.

No JS? Fill the form by hand. The geolocation button needs JavaScript.